Location: Madrid
(40.4000°N, 3.6830°W)
Time: 22:53:05
(UTC+02:00)

ISS - Pass Details

Date: 24 July 2017
Orbit: 400 x 408 km, 51.6° (Epoch: 24 July)

Event Time Altitude Azimuth Distance (km) Brightness Sun altitude
Rises 04:09:56 0° 313° (NW) 2,315 0.2 -24.7°
Reaches altitude 10° 04:12:19 10° 329° (NNW) 1,455 -0.7 -24.4°
Maximum altitude 04:14:56 22° 23° (NNE) 941 -1.2 -24.2°
Drops below altitude 10° 04:17:33 10° 76° (ENE) 1,454 -0.5 -24.0°
Sets 04:19:56 0° 93° (E) 2,312 0.4 -23.7°
